This is the latest recevied weather packets stored in our database for station/object DL9BGG-13. If no packets are shown the sender has not sent any weather packets the latest 1 day(s).
| Time | Temp. | Humidity | Pressure | Rain* | Wind** | Luminosity | Snow |
|---|---|---|---|---|---|---|---|
| 1778025253 | 10° C | 87% | 1055.2 hPa | 0 mm | 3.13 m/s, 45° | - | - |
| 1778025186 | 10° C | 87% | 1055.2 hPa | 0 mm | 2.24 m/s, 45° | - | - |
| 1778025113 | 10° C | 87% | 1055.4 hPa | 0 mm | 4.92 m/s, 45° | - | - |
| 1778025039 | 10° C | 86% | 1055.3 hPa | 0 mm | 1.34 m/s, 22° | - | - |
| 1778024966 | 10° C | 86% | 1055.3 hPa | 0 mm | 4.92 m/s, 45° | - | - |
| 1778024893 | 10° C | 86% | 1055.3 hPa | 0 mm | 2.24 m/s, 90° | - | - |
| 1778024820 | 10° C | 86% | 1055.3 hPa | 0 mm | 3.58 m/s, 45° | - | - |
| 1778024748 | 10° C | 86% | 1055.4 hPa | 0 mm | 1.34 m/s, 45° | - | - |
| 1778024674 | 10° C | 86% | 1055.3 hPa | 0 mm | 1.34 m/s, 22° | - | - |
| 1778024593 | 10° C | 86% | 1055.4 hPa | 0 mm | 2.24 m/s, 67° | - | - |
| 1778024520 | 10° C | 86% | 1055.4 hPa | 0 mm | 1.34 m/s, 45° | - | - |
| 1778024446 | 10° C | 86% | 1055.4 hPa | 0 mm | 4.92 m/s, 22° | - | - |
| 1778024376 | 10° C | 86% | 1055.4 hPa | 0 mm | 2.24 m/s, 22° | - | - |
| 1778024316 | 10° C | 85% | 1055.4 hPa | 0 mm | 2.68 m/s, 0° | - | - |
| 1778024227 | 10° C | 85% | 1055.4 hPa | 0 mm | 2.68 m/s, 45° | - | - |
| 1778024163 | 10° C | 85% | 1055.4 hPa | 0 mm | 4.02 m/s, 22° | - | - |
| 1778024097 | 10° C | 85% | 1055.3 hPa | 0 mm | 2.68 m/s, 22° | - | - |
| 1778024026 | 10° C | 85% | 1055.4 hPa | 0 mm | 2.24 m/s, 45° | - | - |
| 1778023959 | 10° C | 85% | 1055.3 hPa | 0 mm | 0 m/s | - | - |
| 1778023896 | 10° C | 85% | 1055.3 hPa | 0 mm | 4.02 m/s, 45° | - | - |
| 1778023829 | 10° C | 85% | 1055.3 hPa | 0 mm | 2.68 m/s, 45° | - | - |
| 1778023748 | 10° C | 84% | 1055.4 hPa | 0 mm | 5.36 m/s, 45° | - | - |
| 1778023676 | 10° C | 84% | 1055.4 hPa | 0 mm | 1.79 m/s, 45° | - | - |
| 1778023609 | 10° C | 84% | 1055.4 hPa | 0 mm | 4.02 m/s, 45° | - | - |
| 1778023543 | 10° C | 84% | 1055.4 hPa | 0 mm | 7.6 m/s, 45° | - | - |
* Rain latest hour (hover to see other rain measurements)
** Current wind speed in m/s (hover to see current wind gust speed)